K9JM Weather Reports


Display with metric or nautical units.
time (UTC)temp
F
wind
direction
speed
MPH
gust
MPH
rain 1hr
in
rain 24hr
in
rain mn
in
humidity
%
barometer
mb
20260508080015 62 0.0 0.0 0.00 0.00 0.00 75 1017.4
20260508074515 62 0.0 0.0 0.00 0.00 0.00 75 1017.2
20260508073035 62 0.0 0.0 0.00 0.00 0.00 77 1017.2
20260508071515 62 0.0 0.0 0.00 0.00 0.00 79 1017.3
20260508070015 63 0.0 0.0 0.00 0.00 0.00 79 1017.3
20260508064517 63 0.0 0.0 0.00 0.00 0.00 80 1017.4
20260508063037 63 0.0 0.0 0.00 0.00 0.00 80 1017.4
20260508061517 63 0.0 0.0 0.00 0.00 0.00 81 1017.6
20260508060017 63 0.0 0.0 0.00 0.00 0.00 82 1017.7
20260508054516 64 0.0 0.0 0.00 0.00 0.00 84 1017.9
20260508053036 64 0.0 0.0 0.00 0.00 0.00 83 1017.8
20260508051516 65 0.0 0.0 0.00 0.00 0.00 83 1017.8
20260508050016 65 0.0 0.0 0.00 0.00 0.00 82 1017.6
20260508044517 66 0.0 0.0 0.00 0.00 0.00 82 1018.0
20260508043036 66 0.0 0.0 0.00 0.00 0.00 81 1017.7
20260508041516 67 0.0 0.0 0.00 0.00 0.00 80 1017.5
20260508040016 67 0.0 0.0 0.00 0.00 0.00 79 1017.1
20260508034516 67 0.0 0.0 0.00 0.00 0.00 78 1017.1
20260508033036 68 0.0 0.0 0.00 0.00 0.00 77 1016.9
20260508031516 69 0.0 0.0 0.00 0.00 0.00 76 1016.8
20260508030016 70 0.0 0.0 0.00 0.00 0.00 74 1016.6
20260508024516 71 0.0 0.0 0.00 0.00 0.00 72 1016.4
20260508023016 71 0.0 0.0 0.00 0.00 0.00 71 1016.3
20260508021536 72 0.0 0.0 0.00 0.00 0.00 70 1016.2
20260508020016 72 0.0 0.0 0.00 0.00 0.00 70 1016.2
20260508014516 73 0.0 0.0 0.00 0.00 0.00 69 1016.3
20260508013016 73 0.0 0.0 0.00 0.00 0.00 67 1016.4
20260508011536 74 0.0 0.0 0.00 0.00 0.00 64 1016.6
20260508010016 74 0.0 0.0 0.00 0.00 0.00 63 1016.7
20260508004516 75 0.0 0.0 0.00 0.00 0.00 59 1016.7
20260508003036 75 0.0 0.0 0.00 0.00 0.00 61 1017.1
20260508001516 75 0.0 0.0 0.00 0.00 0.00 62 1017.1
20260508000016 75 0.0 0.0 0.00 0.00 0.00 68 1017.2
20260507234516 75 0.0 0.0 0.00 0.00 0.00 62 1017.1
20260507233016 75 0.0 0.0 0.00 0.00 0.00 64 1017.2
20260507231516 75 0.0 0.0 0.00 0.00 0.00 68 1017.5
20260507230016 75 0.0 0.0 0.00 0.00 0.00 69 1017.6
20260507224516 75 0.0 0.0 0.00 0.00 0.00 67 1017.6
20260507223016 75 0.0 0.0 0.00 0.00 0.00 65 1017.9
20260507221516 75 0.0 0.0 0.00 0.00 0.00 62 1018.2
20260507220016 75 0.0 0.0 0.00 0.00 0.00 64 1018.1
20260507214516 75 0.0 0.0 0.00 0.00 0.00 65 1018.6
20260507213036 74 0.0 0.0 0.00 0.00 0.00 66 1018.5
20260507211516 74 0.0 0.0 0.00 0.00 0.00 65 1018.6
20260507210016 73 0.0 0.0 0.00 0.00 0.00 68 1018.7
20260507204516 73 0.0 0.0 0.00 0.00 0.00 69 1018.9
20260507203016 73 0.0 0.0 0.00 0.00 0.00 73 1019.1
20260507201516 73 0.0 0.0 0.00 0.00 0.00 72 1019.2
20260507200016 72 0.0 0.0 0.00 0.00 0.00 72 1019.4
20260507194516 72 0.0 0.0 0.00 0.00 0.00 71 1019.4
20260507193016 72 0.0 0.0 0.00 0.00 0.00 73 1019.6
20260507191516 72 0.0 0.0 0.00 0.00 0.00 73 1019.6
20260507190016 73 0.0 0.0 0.00 0.00 0.00 71 1019.7
20260507184516 73 0.0 0.0 0.00 0.00 0.00 67 1019.8
20260507183036 73 0.0 0.0 0.00 0.00 0.00 67 1019.9
20260507181516 71 0.0 0.0 0.00 0.00 0.00 68 1019.9
20260507180015 72 0.0 0.0 0.00 0.00 0.00 67 1019.8
20260507174515 72 0.0 0.0 0.00 0.00 0.00 70 1019.9
20260507173015 72 0.0 0.0 0.00 0.00 0.00 69 1019.8
20260507171515 70 0.0 0.0 0.00 0.00 0.00 72 1019.8
20260507170016 70 0.0 0.0 0.00 0.00 0.00 71 1020.0
20260507164515 69 0.0 0.0 0.00 0.00 0.00 76 1019.9
20260507163015 68 0.0 0.0 0.00 0.00 0.00 76 1020.0
20260507161516 67 0.0 0.0 0.00 0.00 0.00 76 1019.9
20260507160015 66 0.0 0.0 0.00 0.00 0.00 76 1020.0
20260507154535 66 0.0 0.0 0.00 0.00 0.00 79 1019.9
20260507153036 65 0.0 0.0 0.00 0.00 0.00 79 1019.8
20260507151515 63 0.0 0.0 0.00 0.00 0.00 82 1019.9
20260507150035 62 0.0 0.0 0.00 0.00 0.00 85 1019.8
20260507144515 60 0.0 0.0 0.00 0.00 0.00 88 1019.8
20260507143015 58 0.0 0.0 0.00 0.00 0.00 91 1019.6
20260507141515 57 0.0 0.0 0.00 0.00 0.00 93 1019.4
20260507140016 55 0.0 0.0 0.00 0.00 0.00 94 1019.1
20260507134515 54 0.0 0.0 0.00 0.00 0.00 94 1018.9
20260507133035 54 0.0 0.0 0.00 0.00 0.00 94 1018.8
20260507131516 54 0.0 0.0 0.00 0.00 0.00 94 1018.7
20260507130035 54 0.0 0.0 0.00 0.00 0.00 94 1018.8
20260507124516 54 0.0 0.0 0.00 0.00 0.00 94 1018.7
20260507123015 54 0.0 0.0 0.00 0.00 0.00 94 1018.6
20260507121516 55 0.0 0.0 0.00 0.00 0.00 93 1018.7
20260507120015 55 0.0 0.0 0.00 0.00 0.00 94 1018.7
20260507114515 55 0.0 0.0 0.00 0.00 0.00 94 1018.7
20260507113015 56 0.0 0.0 0.00 0.00 0.00 93 1018.7
20260507111515 56 0.0 0.0 0.00 0.00 0.00 93 1018.6
20260507110015 56 0.0 0.0 0.00 0.00 0.00 93 1018.7
20260507104515 57 0.0 0.0 0.00 0.00 0.00 93 1018.8
20260507103035 57 0.0 0.0 0.00 0.00 0.00 93 1018.7
20260507101516 57 0.0 0.0 0.00 0.00 0.00 93 1018.8
20260507100015 57 0.0 0.0 0.00 0.00 0.00 93 1018.7
20260507094517 57 0.0 0.0 0.00 0.00 0.00 92 1018.8
20260507093017 57 0.0 0.0 0.00 0.00 0.00 92 1018.8
20260507091537 57 0.0 0.0 0.00 0.00 0.00 92 1018.9
20260507090017 57 0.0 0.0 0.00 0.00 0.00 92 1018.9
20260507084517 57 0.0 0.0 0.00 0.00 0.00 92 1018.9
20260507083017 58 0.0 0.0 0.00 0.00 0.00 92 1018.8
20260507081517 58 0.0 0.0 0.00 0.00 0.00 92 1018.8